Time,TemperatureF,DewpointF,PressureIn,WindDirection,WindDirectionDegrees,WindSpeedMPH,WindSpeedGustMPH,Humidity,HourlyPrecipIn,Conditions,Clouds,dailyrainin,SoftwareType,DateUTC
2013-01-04 00:23:00,34.0,19.0,30.15,WNW,301,9.0,14.0,54,0.00,,,0.00,weatherlink.com 1.10,2013-01-04 05:23:00,
2013-01-04 00:39:00,33.9,19.0,30.14,West,270,8.0,11.0,55,0.00,,,0.00,weatherlink.com 1.10,2013-01-04 05:39:00,
2013-01-04 00:54:00,33.9,19.0,30.14,West,271,10.0,13.0,54,0.00,,,0.00,weatherlink.com 1.10,2013-01-04 05:54:00,
2013-01-04 01:09:00,33.9,19.0,30.14,West,265,5.0,11.0,55,0.00,,,0.00,weatherlink.com 1.10,2013-01-04 06:09:00,
2013-01-04 01:24:00,33.5,19.0,30.14,NW,311,3.0,8.0,56,0.00,,,0.00,weatherlink.com 1.10,2013-01-04 06:24:00,
2013-01-04 01:39:00,33.3,19.0,30.15,West,273,5.0,8.0,56,0.00,,,0.00,weatherlink.com 1.10,2013-01-04 06:39:00,
2013-01-04 01:54:00,33.2,19.0,30.16,WNW,285,2.0,10.0,57,0.00,,,0.00,weatherlink.com 1.10,2013-01-04 06:54:00,
2013-01-04 02:09:00,33.2,19.0,30.16,West,266,7.0,13.0,57,0.00,,,0.00,weatherlink.com 1.10,2013-01-04 07:09:00,
2013-01-04 02:24:00,33.1,19.0,30.17,WSW,246,8.0,14.0,57,0.00,,,0.00,weatherlink.com 1.10,2013-01-04 07:24:00,
2013-01-04 02:39:00,33.0,19.0,30.17,WSW,246,7.0,17.0,56,0.00,,,0.00,weatherlink.com 1.10,2013-01-04 07:39:00,
2013-01-04 02:54:00,32.8,19.0,30.17,West,276,4.0,13.0,56,0.00,,,0.00,weatherlink.com 1.10,2013-01-04 07:54:00,
2013-01-04 03:09:00,32.5,19.0,30.18,West,272,9.0,21.0,57,0.00,,,0.00,weatherlink.com 1.10,2013-01-04 08:09:00,
2013-01-04 03:24:00,32.2,19.0,30.18,NW,307,4.0,14.0,58,0.00,,,0.00,weatherlink.com 1.10,2013-01-04 08:24:00,
2013-01-04 03:39:00,31.9,18.0,30.18,WNW,287,3.0,10.0,58,0.00,,,0.00,weatherlink.com 1.10,2013-01-04 08:39:00,
2013-01-04 03:54:00,31.7,19.0,30.18,SSW,197,5.0,12.0,60,0.00,,,0.00,weatherlink.com 1.10,2013-01-04 08:54:00,
2013-01-04 04:09:00,31.6,19.0,30.17,West,269,6.0,9.0,60,0.00,,,0.00,weatherlink.com 1.10,2013-01-04 09:09:00,
2013-01-04 04:24:00,31.5,19.0,30.18,West,263,8.0,18.0,60,0.00,,,0.00,weatherlink.com 1.10,2013-01-04 09:24:00,
2013-01-04 04:39:00,31.4,19.0,30.18,West,262,14.0,16.0,60,0.00,,,0.00,weatherlink.com 1.10,2013-01-04 09:39:00,
2013-01-04 04:54:00,31.4,19.0,30.17,West,271,5.0,13.0,60,0.00,,,0.00,weatherlink.com 1.10,2013-01-04 09:54:00,
2013-01-04 05:09:00,31.3,19.0,30.18,West,265,5.0,13.0,60,0.00,,,0.00,weatherlink.com 1.10,2013-01-04 10:09:00,
2013-01-04 05:24:00,31.3,19.0,30.18,SSW,206,1.0,12.0,60,0.00,,,0.00,weatherlink.com 1.10,2013-01-04 10:24:00,
2013-01-04 05:39:00,31.3,19.0,30.18,West,261,4.0,12.0,60,0.00,,,0.00,weatherlink.com 1.10,2013-01-04 10:39:00,
2013-01-04 05:54:00,31.4,19.0,30.18,SW,233,13.0,16.0,60,0.00,,,0.00,weatherlink.com 1.10,2013-01-04 10:54:00,
2013-01-04 06:09:00,31.5,19.0,30.18,West,280,6.0,13.0,60,0.00,,,0.00,weatherlink.com 1.10,2013-01-04 11:09:00,
2013-01-04 06:24:00,31.4,19.0,30.18,SW,236,2.0,8.0,60,0.00,,,0.00,weatherlink.com 1.10,2013-01-04 11:24:00,
2013-01-04 06:39:00,31.4,19.0,30.17,WNW,287,7.0,10.0,61,0.00,,,0.00,weatherlink.com 1.10,2013-01-04 11:39:00,
2013-01-04 06:54:00,31.4,19.0,30.17,West,260,6.0,15.0,61,0.00,,,0.00,weatherlink.com 1.10,2013-01-04 11:54:00,
2013-01-04 07:09:00,31.4,20.0,30.18,WSW,249,0.0,6.0,62,0.00,,,0.00,weatherlink.com 1.10,2013-01-04 12:09:00,
2013-01-04 07:24:00,31.4,20.0,30.17,West,280,3.0,7.0,62,0.00,,,0.00,weatherlink.com 1.10,2013-01-04 12:24:00,
2013-01-04 07:39:00,31.4,20.0,30.17,West,277,5.0,8.0,62,0.00,,,0.00,weatherlink.com 1.10,2013-01-04 12:39:00,
2013-01-04 07:54:00,31.5,20.0,30.17,West,281,8.0,13.0,62,0.00,,,0.00,weatherlink.com 1.10,2013-01-04 12:54:00,
2013-01-04 08:09:00,31.7,20.0,30.17,West,264,8.0,12.0,62,0.00,,,0.00,weatherlink.com 1.10,2013-01-04 13:09:00,
2013-01-04 08:24:00,31.7,20.0,30.17,WSW,246,11.0,13.0,63,0.00,,,0.00,weatherlink.com 1.10,2013-01-04 13:24:00,
2013-01-04 08:39:00,31.8,20.0,30.17,West,259,6.0,15.0,62,0.00,,,0.00,weatherlink.com 1.10,2013-01-04 13:39:00,
2013-01-04 08:54:00,32.0,20.0,30.17,South,172,1.0,14.0,62,0.00,,,0.00,weatherlink.com 1.10,2013-01-04 13:54:00,
2013-01-04 09:09:00,32.1,20.0,30.17,West,264,8.0,12.0,62,0.00,,,0.00,weatherlink.com 1.10,2013-01-04 14:09:00,
2013-01-04 09:24:00,32.3,20.0,30.17,WSW,252,8.0,14.0,62,0.00,,,0.00,weatherlink.com 1.10,2013-01-04 14:24:00,
2013-01-04 09:39:00,32.5,21.0,30.17,West,267,16.0,17.0,62,0.00,,,0.00,weatherlink.com 1.10,2013-01-04 14:39:00,
2013-01-04 09:54:00,32.8,21.0,30.18,West,263,10.0,17.0,61,0.00,,,0.00,weatherlink.com 1.10,2013-01-04 14:54:00,
2013-01-04 10:09:00,33.0,20.0,30.18,West,263,8.0,18.0,60,0.00,,,0.00,weatherlink.com 1.10,2013-01-04 15:09:00,
2013-01-04 10:24:00,33.2,21.0,30.18,West,269,8.0,17.0,60,0.00,,,0.00,weatherlink.com 1.10,2013-01-04 15:24:00,
2013-01-04 10:39:00,33.3,21.0,30.19,West,276,6.0,19.0,60,0.00,,,0.00,weatherlink.com 1.10,2013-01-04 15:39:00,
2013-01-04 10:54:00,33.7,21.0,30.19,WSW,242,7.0,11.0,59,0.00,,,0.00,weatherlink.com 1.10,2013-01-04 15:54:00,
2013-01-04 11:09:00,33.8,20.0,30.18,West,271,8.0,22.0,58,0.00,,,0.00,weatherlink.com 1.10,2013-01-04 16:09:00,
2013-01-04 11:24:00,34.1,20.0,30.17,West,274,15.0,19.0,57,0.00,,,0.00,weatherlink.com 1.10,2013-01-04 16:24:00,
2013-01-04 11:39:00,34.3,20.0,30.17,WSW,253,7.0,17.0,57,0.00,,,0.00,weatherlink.com 1.10,2013-01-04 16:39:00,
2013-01-04 11:54:00,34.7,20.0,30.15,WSW,249,12.0,22.0,56,0.00,,,0.00,weatherlink.com 1.10,2013-01-04 16:54:00,
2013-01-04 12:09:00,35.0,20.0,30.14,West,262,11.0,22.0,55,0.00,,,0.00,weatherlink.com 1.10,2013-01-04 17:09:00,
2013-01-04 12:25:00,35.4,20.0,30.13,West,274,11.0,20.0,54,0.00,,,0.00,weatherlink.com 1.10,2013-01-04 17:25:00,
2013-01-04 12:40:00,35.7,20.0,30.12,WSW,255,7.0,17.0,53,0.00,,,0.00,weatherlink.com 1.10,2013-01-04 17:40:00,
2013-01-04 12:55:00,36.1,20.0,30.11,WSW,250,5.0,20.0,53,0.00,,,0.00,weatherlink.com 1.10,2013-01-04 17:55:00,
2013-01-04 13:10:00,36.4,21.0,30.10,WSW,250,14.0,18.0,53,0.00,,,0.00,weatherlink.com 1.10,2013-01-04 18:10:00,
2013-01-04 13:25:00,36.7,20.0,30.10,NW,305,14.0,25.0,52,0.00,,,0.00,weatherlink.com 1.10,2013-01-04 18:25:00,
2013-01-04 13:40:00,37.2,20.0,30.09,West,260,14.0,22.0,50,0.00,,,0.00,weatherlink.com 1.10,2013-01-04 18:40:00,
2013-01-04 13:55:00,37.6,20.0,30.08,SW,225,5.0,19.0,50,0.00,,,0.00,weatherlink.com 1.10,2013-01-04 18:55:00,
2013-01-04 14:10:00,37.9,20.0,30.09,West,274,8.0,24.0,49,0.00,,,0.00,weatherlink.com 1.10,2013-01-04 19:10:00,
2013-01-04 14:25:00,38.2,20.0,30.09,West,276,2.0,19.0,49,0.00,,,0.00,weatherlink.com 1.10,2013-01-04 19:25:00,
2013-01-04 14:40:00,38.9,21.0,30.09,West,263,7.0,14.0,48,0.00,,,0.00,weatherlink.com 1.10,2013-01-04 19:40:00,
2013-01-04 14:55:00,38.7,21.0,30.10,West,269,7.0,19.0,49,0.00,,,0.00,weatherlink.com 1.10,2013-01-04 19:55:00,
2013-01-04 15:10:00,38.7,20.0,30.10,West,266,11.0,16.0,48,0.00,,,0.00,weatherlink.com 1.10,2013-01-04 20:10:00,
2013-01-04 15:41:00,38.6,21.0,30.10,WSW,238,7.0,18.0,49,0.00,,,0.00,weatherlink.com 1.10,2013-01-04 20:41:00,
2013-01-04 15:55:00,38.3,20.0,30.11,NW,321,15.0,22.0,48,0.00,,,0.00,weatherlink.com 1.10,2013-01-04 20:55:00,
2013-01-04 16:10:00,38.0,20.0,30.11,SSW,203,6.0,23.0,48,0.00,,,0.00,weatherlink.com 1.10,2013-01-04 21:10:00,
2013-01-04 16:25:00,37.6,19.0,30.11,West,271,8.0,22.0,48,0.00,,,0.00,weatherlink.com 1.10,2013-01-04 21:25:00,
2013-01-04 16:40:00,37.2,20.0,30.10,West,263,8.0,15.0,50,0.00,,,0.00,weatherlink.com 1.10,2013-01-04 21:40:00,
2013-01-04 17:10:00,36.2,19.0,30.10,South,172,2.0,9.0,51,0.00,,,0.00,weatherlink.com 1.10,2013-01-04 22:10:00,
2013-01-04 17:25:00,35.8,20.0,30.10,West,277,0.0,11.0,52,0.00,,,0.00,weatherlink.com 1.10,2013-01-04 22:25:00,
2013-01-04 17:40:00,35.5,19.0,30.11,West,269,4.0,6.0,52,0.00,,,0.00,weatherlink.com 1.10,2013-01-04 22:40:00,
2013-01-04 17:55:00,35.1,19.0,30.12,WNW,283,7.0,13.0,53,0.00,,,0.00,weatherlink.com 1.10,2013-01-04 22:55:00,
2013-01-04 18:25:00,34.8,19.0,30.13,West,260,4.0,16.0,53,0.00,,,0.00,weatherlink.com 1.10,2013-01-04 23:25:00,
2013-01-04 18:40:00,34.5,19.0,30.13,SW,217,0.0,8.0,54,0.00,,,0.00,weatherlink.com 1.10,2013-01-04 23:40:00,
2013-01-04 18:55:00,34.1,19.0,30.13,WSW,252,7.0,10.0,54,0.00,,,0.00,weatherlink.com 1.10,2013-01-04 23:55:00,
2013-01-04 19:10:00,33.9,19.0,30.13,SSE,151,2.0,6.0,55,0.00,,,0.00,weatherlink.com 1.10,2013-01-05 00:10:00,
2013-01-04 19:25:00,33.2,19.0,30.14,SW,215,4.0,9.0,57,0.00,,,0.00,weatherlink.com 1.10,2013-01-05 00:25:00,
2013-01-04 19:40:00,32.9,19.0,30.15,SW,229,2.0,13.0,57,0.00,,,0.00,weatherlink.com 1.10,2013-01-05 00:40:00,
2013-01-04 19:55:00,33.1,19.0,30.15,SW,217,1.0,9.0,57,0.00,,,0.00,weatherlink.com 1.10,2013-01-05 00:55:00,
2013-01-04 20:25:00,33.0,19.0,30.14,WSW,242,2.0,10.0,57,0.00,,,0.00,weatherlink.com 1.10,2013-01-05 01:25:00,
2013-01-04 20:40:00,32.7,19.0,30.14,South,185,0.0,3.0,58,0.00,,,0.00,weatherlink.com 1.10,2013-01-05 01:40:00,
2013-01-04 20:55:00,32.4,19.0,30.14,SE,146,2.0,5.0,59,0.00,,,0.00,weatherlink.com 1.10,2013-01-05 01:55:00,
2013-01-04 21:10:00,32.5,19.0,30.14,WSW,249,7.0,7.0,59,0.00,,,0.00,weatherlink.com 1.10,2013-01-05 02:10:00,
2013-01-04 21:25:00,32.5,19.0,30.14,SSW,200,0.0,3.0,59,0.00,,,0.00,weatherlink.com 1.10,2013-01-05 02:25:00,
2013-01-04 21:40:00,32.8,19.0,30.15,WSW,239,0.0,9.0,58,0.00,,,0.00,weatherlink.com 1.10,2013-01-05 02:40:00,
2013-01-04 21:55:00,33.1,20.0,30.15,WSW,247,3.0,11.0,58,0.00,,,0.00,weatherlink.com 1.10,2013-01-05 02:55:00,
2013-01-04 22:10:00,33.2,20.0,30.15,West,262,4.0,6.0,58,0.00,,,0.00,weatherlink.com 1.10,2013-01-05 03:10:00,
2013-01-04 22:25:00,33.3,20.0,30.15,WNW,291,1.0,9.0,58,0.00,,,0.00,weatherlink.com 1.10,2013-01-05 03:25:00,
2013-01-04 22:40:00,33.3,20.0,30.15,West,261,5.0,12.0,58,0.00,,,0.00,weatherlink.com 1.10,2013-01-05 03:40:00,
2013-01-04 22:55:00,33.9,20.0,30.15,West,270,8.0,16.0,57,0.00,,,0.00,weatherlink.com 1.10,2013-01-05 03:55:00,
2013-01-04 23:10:00,34.0,20.0,30.14,SSW,212,4.0,17.0,57,0.00,,,0.00,weatherlink.com 1.10,2013-01-05 04:10:00,
2013-01-04 23:25:00,34.2,20.0,30.14,West,278,14.0,16.0,56,0.00,,,0.00,weatherlink.com 1.10,2013-01-05 04:25:00,
2013-01-04 23:40:00,34.1,20.0,30.14,SW,215,3.0,13.0,56,0.00,,,0.00,weatherlink.com 1.10,2013-01-05 04:40:00,
2013-01-04 23:55:00,34.0,20.0,30.14,SW,233,5.0,16.0,56,0.00,,,0.00,weatherlink.com 1.10,2013-01-05 04:55:00,